Weather History for KFWN - January, 2013

Change the Weather History Date:

Saturday, January 12, 2013

  Actual Average Record
Temperature  
Mean Temperature 37 °F -  
Max Temperature 41 °F 33 °F 65 °F (1975)
Min Temperature 33 °F 12 °F -22 °F (1968)
Degree Days  
Heating Degree Days 28    
Moisture  
Dew Point 36 °F    
Average Humidity 95    
Maximum Humidity 100    
Minimum Humidity 93    
Precipitation  
Precipitation 0.01 in - - ()
Sea Level Pressure  
Sea Level Pressure 30.13 in    
Wind  
Wind Speed 0 mph (SSW)    
Max Wind Speed 6 mph    
Max Gust Speed -    
Visibility 2 miles    
Events Fog    
Averages and records for this station are not official NWS values.
T = Trace of Precipitation, MM = Missing Value Source: NWS Daily Summary

Daily Weather History Graph

Daily Weather History Graph

Search for Another Location

Airport or City:

Trip Planner

Search our weather history database for the weather conditions in past years. The results will help you decide how hot, cold, wet, or windy it might be!

Date:

Astronomy

Jan. 12, 2013 Rise Set
Actual Time 7:22 AM EST 4:51 PM EST
Civil Twilight 6:52 AM EST 5:21 PM EST
Nautical Twilight 6:18 AM EST 5:56 PM EST
Astronomical Twilight 5:44 AM EST 6:29 PM EST
Moon 7:39 AM EST (1/12) 6:18 PM EST (1/12)
Length of Visible Light 10h 29m
Length of Day
9h 28m
New Moon, 1% of the Moon is Illuminated
Jan 12
New Moon
Jan 18
First Quarter
Jan 26
Full
Feb 3
Last Quarter
Feb 10
New

Hourly Weather History & Observations

Time (EST) Temp. Windchill Dew Point Humidity Pressure Visibility Wind Dir Wind Speed Gust Speed Precip Events Conditions
12:13 AM 35.6 °F - 33.8 °F 93% 30.11 in 1.0 mi Calm Calm - N/A   Overcast
12:53 AM 35.1 °F - 34.0 °F 96% 30.11 in 1.2 mi Calm Calm - 0.01 in   Overcast
1:11 AM 35.6 °F - 33.8 °F 93% 30.10 in 1.8 mi Calm Calm - N/A   Overcast
1:23 AM 35.6 °F - 33.8 °F 93% 30.10 in 0.8 mi Calm Calm - N/A   Overcast
1:51 AM 35.6 °F - 33.8 °F 93% 30.10 in 1.0 mi Calm Calm - N/A   Overcast
1:53 AM 35.1 °F - 34.0 °F 96% 30.11 in 1.0 mi Calm Calm - N/A   Overcast
2:00 AM 33.8 °F - 33.8 °F 100% 30.11 in 0.5 mi Calm Calm - N/A Fog Fog
2:11 AM 35.6 °F - 33.8 °F 93% 30.12 in 1.5 mi Calm Calm - N/A   Overcast
2:19 AM 35.6 °F - 33.8 °F 93% 30.12 in 2.0 mi Calm Calm - N/A   Overcast
2:27 AM 35.6 °F - 33.8 °F 93% 30.12 in 1.2 mi Calm Calm - N/A   Overcast
2:37 AM 35.6 °F - 33.8 °F 93% 30.12 in 0.8 mi Calm Calm - N/A   Overcast
2:46 AM 35.6 °F - 33.8 °F 93% 30.12 in 1.0 mi Calm Calm - N/A   Overcast
3:09 AM 35.6 °F - 33.8 °F 93% 30.12 in 1.0 mi Calm Calm - N/A   Overcast
3:16 AM 35.6 °F - 33.8 °F 93% 30.11 in 0.5 mi Calm Calm - N/A Fog Fog
3:53 AM 36.0 °F - 35.1 °F 97% 30.12 in 0.5 mi Calm Calm - N/A Fog Fog
4:53 AM 35.1 °F - 34.0 °F 96% 30.11 in 0.2 mi Calm Calm - N/A Fog Fog
5:53 AM 36.0 °F - 35.1 °F 97% 30.12 in 0.2 mi Calm Calm - N/A Fog Fog
6:53 AM 35.1 °F - 34.0 °F 96% 30.13 in 0.2 mi Calm Calm - N/A Fog Fog
7:53 AM 35.1 °F - 34.0 °F 96% 30.15 in 0.2 mi Calm Calm - N/A Fog Fog
8:53 AM 36.0 °F - 35.1 °F 97% 30.15 in 0.2 mi Calm Calm - N/A Fog Fog
9:53 AM 37.0 °F - 36.0 °F 96% 30.16 in 0.2 mi Calm Calm - N/A Fog Fog
10:53 AM 39.0 °F - 37.9 °F 96% 30.17 in 0.2 mi Calm Calm - N/A Fog Fog
11:53 AM 39.9 °F - 39.0 °F 97% 30.14 in 0.2 mi Calm Calm - N/A Fog Fog
12:28 PM 41.0 °F 37.1 °F 39.2 °F 93% 30.13 in 1.2 mi SSW 5.8 mph - N/A   Overcast
12:32 PM 41.0 °F 38.0 °F 39.2 °F 93% 30.13 in 2.0 mi SSW 4.6 mph - N/A   Overcast
12:39 PM 39.2 °F 37.0 °F 39.2 °F 100% 30.13 in 6.0 mi South 3.5 mph - N/A   Overcast
12:53 PM 41.0 °F 39.0 °F 39.0 °F 93% 30.15 in 10.0 mi SSW 3.5 mph - N/A   Overcast
1:53 PM 41.0 °F 39.0 °F 39.0 °F 93% 30.14 in 9.0 mi SSW 3.5 mph - N/A   Overcast
2:53 PM 41.0 °F - 39.0 °F 93% 30.14 in 6.0 mi Calm Calm - N/A   Overcast
3:53 PM 41.0 °F - 39.0 °F 93% 30.14 in 4.0 mi Calm Calm - N/A   Overcast
4:00 PM 39.2 °F 37.0 °F 39.2 °F 100% 30.13 in 1.8 mi South 3.5 mph - N/A   Overcast
4:09 PM 39.2 °F - 39.2 °F 100% 30.14 in 1.0 mi Calm Calm - N/A   Overcast
4:17 PM 41.0 °F - 39.2 °F 93% 30.14 in 0.5 mi Calm Calm - N/A Fog Fog
4:53 PM 39.9 °F - 39.0 °F 97% 30.16 in 0.2 mi Calm Calm - N/A Fog Fog
5:53 PM 39.0 °F - 37.9 °F 96% 30.16 in 0.2 mi Calm Calm - N/A Fog Fog
6:53 PM 37.9 °F - 37.0 °F 97% 30.16 in 0.5 mi Calm Calm - N/A Fog Fog
8:53 PM 37.0 °F - 36.0 °F 96% 30.14 in 0.2 mi Calm Calm - N/A Fog Fog
9:53 PM 37.0 °F - 36.0 °F 96% 30.14 in 0.5 mi Calm Calm - N/A Fog Fog
10:53 PM 36.0 °F - 35.1 °F 97% 30.14 in 0.2 mi Calm Calm - N/A Fog Fog
11:53 PM 37.9 °F - 36.0 °F 93% 30.15 in 0.2 mi Calm Calm - N/A Fog Fog